Date,TemperatureHighF,TemperatureAvgF,TemperatureLowF,DewpointHighF,DewpointAvgF,DewpointLowF,HumidityHigh,HumidityAvg,HumidityLow,PressureMaxIn,PressureMinIn,WindSpeedMaxMPH,WindSpeedAvgMPH,GustSpeedMaxMPH,PrecipitationSumIn
2013-3-1,75.7,55.8,41.7,53.1,47.0,40.1,95,75,44,30.44,30.24,11,2,15,0.00
2013-3-2,71.3,56.4,45.1,54.9,48.4,42.8,93,76,52,30.25,30.05,13,1,15,0.00
2013-3-3,66.3,53.4,46.2,51.7,47.3,43.7,91,81,56,30.10,30.01,19,2,23,0.00
2013-3-4,57.9,47.3,38.4,47.7,43.1,36.1,94,86,67,30.16,30.06,15,1,17,0.00
2013-3-5,54.9,46.7,35.9,46.7,41.1,33.8,94,82,66,30.08,29.79,25,3,38,0.23
2013-3-6,57.5,49.0,39.9,47.9,41.7,36.7,92,77,54,30.06,29.80,28,3,32,0.04
2013-3-7,56.9,46.0,36.1,42.6,37.4,33.9,94,75,44,30.01,29.88,15,1,21,0.00
2013-3-8,65.9,49.0,35.4,44.7,37.6,33.0,92,69,30,30.05,29.84,17,2,21,0.00
2013-3-9,72.0,51.8,36.2,46.0,39.5,33.7,92,67,25,30.32,30.05,23,2,25,0.00
2013-3-10,71.0,51.5,36.4,46.1,39.9,34.0,92,69,30,30.34,30.24,15,2,19,0.00
2013-3-11,73.4,51.7,35.0,48.6,41.4,32.9,94,72,32,30.27,30.10,13,1,17,0.00
2013-3-12,75.0,54.0,39.3,57.0,45.9,37.7,95,77,47,30.16,30.07,17,2,19,0.00
2013-3-13,80.3,56.8,40.5,57.9,47.7,38.8,95,75,38,30.17,30.05,13,1,15,0.01
2013-3-14,71.5,55.3,43.8,56.2,47.8,41.9,95,78,52,30.17,30.08,13,1,17,0.00
2013-3-15,75.4,55.4,42.2,55.4,46.8,40.0,93,75,40,30.14,30.02,13,1,23,0.00
2013-3-16,75.9,57.8,40.6,52.3,42.7,31.8,95,63,20,30.12,30.00,23,3,28,0.00
2013-3-17,71.8,54.9,40.7,47.3,41.3,29.1,88,63,22,30.14,30.03,17,2,21,0.00
2013-3-18,69.4,52.4,38.5,47.1,42.3,35.8,92,71,42,30.12,30.01,13,2,17,0.00
2013-3-19,62.9,51.9,43.7,48.7,43.5,40.0,91,75,47,30.13,30.06,11,1,11,0.09
2013-3-20,59.8,52.2,47.1,55.1,49.6,44.1,95,91,81,30.14,30.06,15,1,19,0.43
2013-3-21,67.7,52.1,37.1,46.9,41.4,35.5,95,70,39,30.13,30.00,17,2,21,0.00
2013-3-22,69.5,60.8,45.0,40.6,35.1,26.4,74,41,21,30.12,30.02,15,3,17,0.00
2013-3-23,70.8,52.0,36.3,44.3,37.5,31.5,89,62,24,30.15,30.03,13,2,17,0.00
2013-3-24,71.5,52.8,39.1,49.9,42.6,36.1,91,71,40,30.08,29.96,17,2,21,0.00
2013-3-25,60.5,47.1,38.0,47.0,42.1,36.2,95,84,59,30.03,29.94,21,2,25,0.00
2013-3-26,66.0,51.0,39.7,50.0,44.0,38.4,96,79,52,30.00,29.94,17,2,21,0.01
2013-3-27,64.1,52.5,43.3,52.8,47.4,40.6,92,83,62,30.02,29.95,11,2,15,0.00
2013-3-28,65.0,54.9,46.7,56.4,50.4,44.7,94,85,69,30.09,30.01,11,1,13,0.07
2013-3-29,79.3,58.6,47.6,59.0,51.3,46.2,96,79,39,30.10,30.00,23,2,27,0.01
2013-3-30,69.1,56.3,50.4,56.6,51.3,48.2,94,84,61,30.08,29.99,15,1,19,0.11
2013-3-31,64.2,55.9,51.0,56.1,53.0,49.2,95,90,66,30.07,29.99,11,1,15,0.50